Location: Long Island Community Building
(39.9491°N, 99.5338°W)
Time: 07:37:06
(UTC+00:00)

ATLAS 5 CENTAUR R/B - Pass Details

Date: 06 December 2019
Orbit: 283 x 14340 km, 60.7° (Epoch: 21 January)

Event Time Altitude Azimuth Distance (km) Brightness Sun altitude
Rises 23:33:47 0° 201° (SSW) 3,670 6.8 -4.4°
Reaches altitude 10° 23:37:27 10° 190° (S) 1,847 5.0 -5.0°
Maximum altitude 23:40:21 26° 130° (SE) 752 2.3 -5.5°
Drops below altitude 10° 23:42:13 10° 67° (ENE) 1,156 2.8 -5.8°
Enters shadow 23:42:30 - 63° (ENE) 1,282 3.0 -5.9°
